Wrangell, AK

6:03 PM AKST on January 20, 2018 (GMT -0900)
Wrangell

Weather History for PAWG - September, 2013

Change the Weather History Date:

Wednesday, September 18, 2013

  Actual Average Record
Temperature  
Mean Temperature 52 °F -  
Max Temperature 55 °F 57 °F 65 °F (1986)
Min Temperature 48 °F 43 °F 35 °F (1967)
Degree Days  
Heating Degree Days 14    
Growing Degree Days 2 (Base 50)    
Moisture  
Dew Point 47 °F    
Average Humidity 80    
Maximum Humidity 87    
Minimum Humidity 72    
Precipitation  
Precipitation 0.08 in - - ()
Sea Level Pressure  
Sea Level Pressure 29.84 in    
Wind  
Wind Speed 6 mph (ESE)    
Max Wind Speed 12 mph    
Max Gust Speed -    
Visibility 10 miles    
Events      
Averages and records for this station are not official NWS values.
T = Trace of Precipitation, MM = Missing Value Source: NWS Daily Summary

Daily Weather History Graph

Daily Weather History Graph

Search for Another Location

Airport or City:

Trip Planner

Search our weather history database for the weather conditions in past years. The results will help you decide how hot, cold, wet, or windy it might be!

Date:

Astronomy

Sep. 18, 2013 Rise Set
Actual Time 6:27 AM AKDT 6:58 PM AKDT
Civil Twilight 5:49 AM AKDT 7:35 PM AKDT
Nautical Twilight 5:04 AM AKDT 8:21 PM AKDT
Astronomical Twilight 4:14 AM AKDT 9:09 PM AKDT
Moon 6:20 PM AKDT (9/18) 5:36 AM AKDT (9/18)
Length of Visible Light 13h 46m
Length of Day
12h 30m
Waxing Gibbous, 99% of the Moon is Illuminated
Sep 18
Waxing Gibbous
Sep 19
Full
Sep 26
Last Quarter
Oct 4
New
Oct 11
First Quarter

Hourly Weather History & Observations

Time (AKDT) Temp. Dew Point Humidity Pressure Visibility Wind Dir Wind Speed Gust Speed Precip Events Conditions
12:16 AM 50.0 °F 46.4 °F 87% 29.83 in 4.0 mi South 3.5 mph - 0.01 in   Overcast
12:36 AM 50.0 °F 46.4 °F 87% 29.83 in 10.0 mi Calm Calm - 0.01 in   Overcast
12:56 AM 50.0 °F 46.4 °F 87% 29.83 in 5.0 mi NNW 4.6 mph - 0.02 in   Overcast
1:16 AM 50.0 °F 46.4 °F 87% 29.83 in 5.0 mi Calm Calm - 0.01 in   Overcast
1:36 AM 50.0 °F 46.4 °F 87% 29.84 in 10.0 mi North 4.6 mph - 0.02 in   Overcast
1:56 AM 50.0 °F 46.4 °F 87% 29.84 in 10.0 mi Calm Calm - 0.02 in   Overcast
2:16 AM 50.0 °F 46.4 °F 87% 29.84 in 10.0 mi SSE 4.6 mph - N/A   Mostly Cloudy
2:36 AM 51.8 °F 46.4 °F 82% 29.83 in 8.0 mi East 9.2 mph - N/A   Mostly Cloudy
2:56 AM 51.8 °F 46.4 °F 82% 29.83 in 10.0 mi East 9.2 mph - N/A   Overcast
3:16 AM 51.8 °F 46.4 °F 82% 29.83 in 10.0 mi East 11.5 mph - N/A   Overcast
3:36 AM 51.8 °F 44.6 °F 76% 29.84 in 10.0 mi South 4.6 mph - N/A   Mostly Cloudy
3:56 AM 51.8 °F 46.4 °F 82% 29.85 in 10.0 mi SSE 3.5 mph - N/A   Overcast
4:16 AM 51.8 °F 46.4 °F 82% 29.85 in 10.0 mi ESE 5.8 mph - N/A   Overcast
4:36 AM 51.8 °F 46.4 °F 82% 29.85 in 10.0 mi SE 9.2 mph - 0.03 in   Overcast
4:56 AM 50.0 °F 46.4 °F 87% 29.85 in 10.0 mi ESE 5.8 mph - 0.04 in   Overcast
5:16 AM 50.0 °F 46.4 °F 87% 29.85 in 10.0 mi East 9.2 mph - N/A   Overcast
5:36 AM 50.0 °F 46.4 °F 87% 29.86 in 10.0 mi SE 5.8 mph - N/A   Overcast
5:56 AM 50.0 °F 46.4 °F 87% 29.86 in 10.0 mi ESE 5.8 mph - N/A   Overcast
6:16 AM 50.0 °F 46.4 °F 87% 29.86 in 10.0 mi Calm Calm - N/A   Overcast
6:36 AM 48.2 °F 44.6 °F 87% 29.86 in 10.0 mi NNE 3.5 mph - N/A   Overcast
6:56 AM 48.2 °F 44.6 °F 87% 29.87 in 10.0 mi Calm Calm - N/A   Overcast
7:16 AM 50.0 °F 46.4 °F 87% 29.86 in 10.0 mi Calm Calm - N/A   Overcast
7:36 AM 50.0 °F 46.4 °F 87% 29.87 in 10.0 mi SSE 3.5 mph - N/A   Overcast
7:56 AM 51.8 °F 46.4 °F 82% 29.87 in 10.0 mi East 3.5 mph - N/A   Mostly Cloudy
8:16 AM 51.8 °F 46.4 °F 82% 29.87 in 10.0 mi East 5.8 mph - N/A   Mostly Cloudy
8:36 AM 51.8 °F 46.4 °F 82% 29.87 in 10.0 mi ESE 6.9 mph - N/A   Mostly Cloudy
8:56 AM 51.8 °F 46.4 °F 82% 29.88 in 10.0 mi ENE 6.9 mph - N/A   Mostly Cloudy
9:16 AM 51.8 °F 46.4 °F 82% 29.88 in 10.0 mi ENE 5.8 mph - N/A   Mostly Cloudy
9:36 AM 51.8 °F 46.4 °F 82% 29.88 in 10.0 mi ESE 8.1 mph - N/A   Mostly Cloudy
9:56 AM 51.8 °F 46.4 °F 82% 29.88 in 10.0 mi ESE 8.1 mph - N/A   Mostly Cloudy
10:16 AM 53.6 °F 48.2 °F 82% 29.88 in 10.0 mi East 8.1 mph - N/A   Mostly Cloudy
10:36 AM 53.6 °F 48.2 °F 82% 29.88 in 10.0 mi East 9.2 mph - N/A   Mostly Cloudy
10:56 AM 53.6 °F 46.4 °F 77% 29.88 in 10.0 mi East 10.4 mph - N/A   Mostly Cloudy
11:16 AM 53.6 °F 48.2 °F 82% 29.88 in 10.0 mi East 9.2 mph - N/A   Mostly Cloudy
11:36 AM 53.6 °F 48.2 °F 82% 29.88 in 10.0 mi East 11.5 mph - N/A   Mostly Cloudy
11:56 AM 53.6 °F 46.4 °F 77% 29.88 in 10.0 mi East 11.5 mph - N/A   Mostly Cloudy
12:16 PM 53.6 °F 48.2 °F 82% 29.88 in 10.0 mi East 10.4 mph - N/A   Mostly Cloudy
12:36 PM 53.6 °F 46.4 °F 77% 29.88 in 10.0 mi East 9.2 mph - N/A   Mostly Cloudy
12:56 PM 53.6 °F 48.2 °F 82% 29.88 in 10.0 mi East 8.1 mph - N/A   Mostly Cloudy
1:16 PM 53.6 °F 46.4 °F 77% 29.88 in 10.0 mi East 6.9 mph - N/A   Mostly Cloudy
1:36 PM 55.4 °F 46.4 °F 72% 29.88 in 10.0 mi SSE 4.6 mph - N/A   Mostly Cloudy
1:56 PM 53.6 °F 48.2 °F 82% 29.87 in 10.0 mi South 8.1 mph - N/A   Mostly Cloudy
2:16 PM 55.4 °F 46.4 °F 72% 29.87 in 10.0 mi ESE 6.9 mph - N/A   Mostly Cloudy
2:36 PM 55.4 °F 48.2 °F 77% 29.87 in 10.0 mi East 6.9 mph - N/A   Mostly Cloudy
2:56 PM 55.4 °F 46.4 °F 72% 29.86 in 10.0 mi ESE 11.5 mph - N/A   Mostly Cloudy
3:16 PM 55.4 °F 48.2 °F 77% 29.86 in 10.0 mi East 8.1 mph - N/A   Mostly Cloudy
3:36 PM 55.4 °F 48.2 °F 77% 29.86 in 10.0 mi East 9.2 mph - N/A   Mostly Cloudy
3:56 PM 55.4 °F 48.2 °F 77% 29.85 in 10.0 mi East 9.2 mph - N/A   Mostly Cloudy
4:16 PM 55.4 °F 48.2 °F 77% 29.85 in 10.0 mi ESE 8.1 mph - N/A   Mostly Cloudy
4:36 PM 55.4 °F 48.2 °F 77% 29.84 in 10.0 mi SE 9.2 mph - N/A   Mostly Cloudy
4:56 PM 55.4 °F 46.4 °F 72% 29.85 in 10.0 mi SE 9.2 mph - N/A   Mostly Cloudy
5:16 PM 55.4 °F 46.4 °F 72% 29.84 in 10.0 mi ESE 5.8 mph - N/A   Mostly Cloudy
5:36 PM 55.4 °F 48.2 °F 77% 29.84 in 10.0 mi SE 5.8 mph - N/A   Mostly Cloudy
5:56 PM 53.6 °F 48.2 °F 82% 29.83 in 10.0 mi SE 5.8 mph - N/A   Mostly Cloudy
6:16 PM 53.6 °F 48.2 °F 82% 29.83 in 10.0 mi ESE 5.8 mph - N/A   Overcast
6:36 PM 55.4 °F 48.2 °F 77% 29.83 in 10.0 mi SE 3.5 mph - N/A   Overcast
6:56 PM 53.6 °F 48.2 °F 82% 29.82 in 10.0 mi Calm Calm - N/A   Overcast
7:16 PM 55.4 °F 46.4 °F 72% 29.82 in 10.0 mi East 5.8 mph - N/A   Overcast
7:36 PM 53.6 °F 46.4 °F 77% 29.82 in 10.0 mi SE 5.8 mph - N/A   Overcast
7:56 PM 53.6 °F 46.4 °F 77% 29.81 in 10.0 mi SE 5.8 mph - N/A   Overcast
8:16 PM 53.6 °F 46.4 °F 77% 29.81 in 10.0 mi SE 4.6 mph - N/A   Overcast
8:36 PM 53.6 °F 46.4 °F 77% 29.80 in 10.0 mi East 6.9 mph - N/A   Overcast
8:56 PM 53.6 °F 46.4 °F 77% 29.79 in 10.0 mi East 6.9 mph - N/A   Overcast
9:16 PM 53.6 °F 46.4 °F 77% 29.79 in 10.0 mi SE 4.6 mph - N/A   Overcast
9:36 PM 53.6 °F 46.4 °F 77% 29.79 in 10.0 mi SE 5.8 mph - N/A   Overcast
9:56 PM 53.6 °F 46.4 °F 77% 29.78 in 10.0 mi East 5.8 mph - N/A   Overcast
10:16 PM 53.6 °F 46.4 °F 77% 29.76 in 10.0 mi East 11.5 mph - N/A   Overcast
10:36 PM 53.6 °F 46.4 °F 77% 29.75 in 10.0 mi East 11.5 mph - N/A   Overcast
10:56 PM 53.6 °F 46.4 °F 77% 29.74 in 10.0 mi East 10.4 mph - N/A   Overcast
11:16 PM 53.6 °F 46.4 °F 77% 29.74 in 10.0 mi East 10.4 mph - N/A   Mostly Cloudy
11:36 PM 53.6 °F 46.4 °F 77% 29.73 in 10.0 mi East 10.4 mph - N/A   Partly Cloudy
11:56 PM 53.6 °F 46.4 °F 77% 29.72 in 10.0 mi East 11.5 mph - N/A   Scattered Clouds